sat.trackr.live / text

‹ back to catalog

JILIN-1 GAOFEN 3A

NORAD 44312 · 2019-032C

PAYLOAD ACTIVE UNKNOWN

§ Identity

Operator
Country
PRC
Launch date
2019-06-05
Launch site
YSLA
Launch vehicle
Mass (kg)
RCS (m²)

External: N2YO · Heavens-Above · Gunter

§ Orbital elements

Epoch: 2026-09-20T04:29:46.984704Z

Period
93.84 min
Inclination
44.9738°
Eccentricity
0.0006357
Mean motion
15.34470835 rev/d
Perigee alt
458.1 km
Apogee alt
466.8 km
Semi-major
6,840.6 km
B*
2.5895e-4
RAAN
193.3422°
Arg perigee
150.2311°
Mean anomaly
209.8936°
Rev number
40,242

§ Raw data

JILIN-1 GAOFEN 3A1 44312U 19032C   26263.18734936  .00008514  00000+0  25895-3 0  99982 44312  44.9738 193.3422 0006357 150.2311 209.8936 15.34470835402428

JSON: /api/v1/satellites/44312 · /tle

For live sub-satellite position, see the globe view (requires WebGL).

§ Visibility from observer

Set your observer location to see the next 7 days of passes ≥ 10°. The values pass through the URL so the page stays shareable.

No JS? Fill the form by hand. The geolocation button needs JavaScript.

§ Radio — SatNOGS DB

ModeDescriptionDownlinkUplink
FM Mode U - Possibly Downlink 401.126 MHz

1 transmitter · refreshed weekly from db.satnogs.org